Location: Newark
(44.5425°N, 10.7801°E)
Time: 18:39:12
(UTC+00:00)

X-37B - Visible Passes

Search period start: 07 March 2021 00:00
Search period end: 17 March 2021 00:00
Orbit: 383 x 391 km, 45.0° (Epoch: 27 February)

Date Brightness Start Highest point End Pass type
(mag) Time Alt. Az. Time Alt. Az. Time Alt. Az.
10 Mar 2.9 18:40:15 10° S 18:41:13 14° SSE 18:41:13 14° SSE visible
11 Mar 2.7 19:17:09 10° SW 19:18:22 20° SW 19:18:22 20° SW visible
12 Mar 1.9 18:19:13 10° SSW 18:21:55 25° SSE 18:23:05 20° ESE visible
12 Mar 3.8 19:55:07 10° WSW 19:55:23 12° WSW 19:55:23 12° WSW visible
13 Mar 0.6 18:56:48 10° WSW 18:59:58 60° SSE 18:59:58 60° SSE visible
14 Mar 1.3 17:58:38 10° SW 18:01:41 40° SSE 18:04:28 12° E visible
14 Mar 2.5 19:35:00 10° W 19:36:45 30° W 19:36:45 30° W visible
15 Mar 0.5 18:36:37 10° WSW 18:39:50 82° SSE 18:41:10 32° E visible
15 Mar 4.1 20:13:18 10° W 20:13:28 11° W 20:13:28 11° W visible
16 Mar 0.8 19:14:54 10° W 19:17:49 68° WNW 19:17:49 68° WNW visible
